Погода в Боровске

Россия / Калужская область     55°12′27″N   36°29′00″E
темп.,
°C
ветер,
м/с
пор.,
м/с
влажн.,
%
обл.,
%
осадки,
мм/ч
давл.,
гПа
погр.,
м
4 августа, ср
ср400:00+16зюз257287 0.0 1013146
03:00+12з238842 0.0 101459
06:00+15з2379100 0.0 1014107
09:00+17сз236954 0.0 1015341
12:00+22зсз234299 0.0 10162269
15:00+22зюз234498 0.0 10161558
18:00+19зюз116599 0.0 101643
21:00+15зсз018354 0.8 101711
5 августа, чт
чт500:00+13ю118873 0.3 101710
03:00+13юз11915 0.6 101710
06:00+13ю1292100 0.1 101726
09:00+16ююв2488100 0.1 1017188
12:00+22ююз5752100 0.5 10161502
15:00+17ю3874100 0.6 1016480
18:00+18юв3873100 0.0 1014440
21:00+14юв2793100 0.1 1013162
6 августа, пт
пт600:00+14ююв2897100 2.1 1013235
03:00+15ююв1199100 4.0 101223
06:00+15юв1599100 2.7 1011204
09:00+16вюв2492100 4.6 1011253
12:00+16в3598100 2.4 1011166
15:00+19всв2490100 2.7 1009154
18:00+19св3690100 0.1 1008158
21:00+17всв3992100 0.1 1009190
7 августа, сб
сб700:00+16св4992100 0.0 1010216
03:00+14всв249532 0.0 100990
06:00+15в269666 0.0 1009141
09:00+22юв3574100 0.0 1008343
12:00+27ююз5754100 0.0 10091047
15:00+26ююв2464100 0.1 1009364
18:00+25ююв31065100 0.0 1009980
21:00+20ююв367968 0.1 1010110
8 августа, вс
вс800:00+17ю229476 0.8 101136
03:00+17ю1193100 1.3 101112
06:00+17ююз229449 0.9 101142
09:00+21з3488100 0.9 1011504
12:00+20з2388100 1.3 1013608
15:00+23юз2467100 1.5 10131012
18:00+23з235886 0.0 1014384
21:00+16ссз25850 0.0 101687